Location: Maccacari
(45.1333°N, 11.1333°E)
Time: 22:45:49
(UTC+00:00)

Tiros 1 despin weight - Pass Details

Date: 28 January 2021
Orbit: 593 x 642 km, 48.2° (Epoch: 08 March)

Event Time Altitude Azimuth Distance (km) Brightness Sun altitude
Rises 18:01:43 0° 288° (WNW) 2,859 ? -18.4°
Reaches altitude 10° 18:04:15 10° 278° (W) 1,945 ? -18.9°
Maximum altitude 18:08:06 29° 218° (SW) 1,092 ? -19.5°
Enters shadow 18:11:48 11° 158° (SSE) 1,878 ? -20.2°
